Mount Airy, NC

3:45 PM EST on December 05, 2019 (GMT -0500)
Mount Airy-Surry County

Weather History for KMWK - October, 2019

Change the Weather History Date:

Thursday, October 24, 2019

  Actual Average (WUND) Record (WUND)
Temperature  
Mean Temperature 51 °F -  
Max Temperature 66 °F - - (-1)
Min Temperature 36 °F - - (-1)
Degree Days  
Heating Degree Days 14    
Growing Degree Days 1 (Base 50)    
Moisture  
Dew Point 39 °F    
Average Humidity 68    
Maximum Humidity 93    
Minimum Humidity 30    
Precipitation  
Precipitation 0.00 in - - ()
Sea Level Pressure  
Sea Level Pressure 30.31 in    
Wind  
Wind Speed 0 mph ()    
Max Wind Speed 7 mph    
Max Gust Speed -    
Visibility 10.0 miles    
Events      
Averages and records for this station are not official NWS values.
T = Trace of Precipitation, MM = Missing Value Source: Averaged Metar Reports

Daily Weather History Graph

Daily Weather History Graph

Search for Another Location

Airport or City:

Astronomy

Oct. 24, 2019 Rise Set
Actual Time 7:37 AM EDT 6:34 PM EDT
Civil Twilight 7:11 AM EDT 7:01 PM EDT
Nautical Twilight 6:40 AM EDT 7:31 PM EDT
Astronomical Twilight 6:11 AM EDT 8:01 PM EDT
Moon 3:15 AM EDT (10/24) 4:52 PM EDT (10/24)
Length of Visible Light 11h 49m
Length of Day
10h 57m
Waning Crescent, 17% of the Moon is Illuminated
Oct 24
Waning Crescent
Oct 27
New
Nov 4
First Quarter
Nov 12
Full
Nov 19
Last Quarter

Hourly Weather History & Observations

Time (EDT) Temp. Dew Point Humidity Pressure Visibility Wind Dir Wind Speed Gust Speed Precip Events Conditions
12:15 AM 43.9 °F 39.6 °F 85% 30.27 in 10.0 mi Calm Calm - N/A   Clear
12:35 AM 44.2 °F 39.7 °F 84% 30.27 in 10.0 mi Calm Calm - N/A   Clear
12:55 AM 43.7 °F 39.2 °F 84% 30.27 in 10.0 mi Calm Calm - N/A   Clear
1:15 AM 42.3 °F 38.8 °F 88% 30.28 in 10.0 mi Calm Calm - N/A   Clear
1:35 AM 41.4 °F 38.7 °F 90% 30.28 in 10.0 mi Calm Calm - N/A   Clear
1:55 AM 42.6 °F 38.8 °F 86% 30.29 in 10.0 mi Calm Calm - N/A   Clear
2:15 AM 41.7 °F 38.3 °F 88% 30.29 in 10.0 mi Calm Calm - N/A   Clear
2:35 AM 42.1 °F 38.5 °F 87% 30.29 in 10.0 mi Calm Calm - N/A   Clear
2:55 AM 40.5 °F 37.8 °F 90% 30.29 in 10.0 mi Calm Calm - N/A   Clear
3:15 AM 39.9 °F 37.4 °F 91% 30.28 in 10.0 mi Calm Calm - N/A   Clear
3:35 AM 40.1 °F 37.4 °F 90% 30.28 in 10.0 mi Calm Calm - N/A   Clear
3:55 AM 39.6 °F 36.9 °F 90% 30.28 in 10.0 mi Calm Calm - N/A   Clear
4:15 AM 39.4 °F 36.9 °F 91% 30.27 in 10.0 mi Calm Calm - N/A   Clear
4:35 AM 39.0 °F 36.5 °F 91% 30.28 in 10.0 mi Calm Calm - N/A   Clear
4:55 AM 38.8 °F 36.5 °F 91% 30.28 in 10.0 mi Calm Calm - N/A   Clear
5:15 AM 38.3 °F 36.1 °F 92% 30.29 in 10.0 mi Calm Calm - N/A   Clear
5:35 AM 38.3 °F 36.0 °F 91% 30.29 in 10.0 mi Calm Calm - N/A   Clear
5:55 AM 38.3 °F 36.0 °F 91% 30.30 in 10.0 mi Calm Calm - N/A   Clear
6:15 AM 38.3 °F 36.3 °F 93% 30.30 in 10.0 mi Calm Calm - N/A   Clear
6:35 AM 37.8 °F 35.6 °F 92% 30.31 in 10.0 mi Calm Calm - N/A   Clear
6:55 AM 37.8 °F 35.8 °F 93% 30.31 in 10.0 mi Calm Calm - N/A   Clear
7:35 AM 36.9 °F 34.7 °F 92% 30.32 in 10.0 mi Calm Calm - N/A   Clear
7:55 AM 37.8 °F 35.6 °F 92% 30.33 in 10.0 mi Calm Calm - N/A   Clear
8:15 AM 38.8 °F 36.5 °F 91% 30.34 in 10.0 mi Calm Calm - N/A   Clear
8:35 AM 41.4 °F 38.7 °F 90% 30.35 in 10.0 mi Calm Calm - N/A   Clear
8:55 AM 43.2 °F 39.6 °F 87% 30.36 in 10.0 mi Calm Calm - N/A   Clear
9:15 AM 45.9 °F 40.1 °F 80% 30.36 in 10.0 mi Calm Calm - N/A   Clear
9:35 AM 50.2 °F 42.1 °F 74% 30.36 in 10.0 mi Calm Calm - N/A   Clear
9:55 AM 53.8 °F 37.9 °F 55% 30.36 in 10.0 mi Calm Calm - N/A   Clear
10:15 AM 56.1 °F 41.0 °F 57% 30.36 in 10.0 mi Calm Calm - N/A   Clear
10:35 AM 57.2 °F 43.0 °F 59% 30.36 in 10.0 mi Calm Calm - N/A   Clear
10:55 AM 58.5 °F 43.7 °F 58% 30.36 in 10.0 mi Calm Calm - N/A   Clear
11:15 AM 61.5 °F 44.1 °F 53% 30.36 in 10.0 mi Calm Calm - N/A   Clear
11:35 AM 61.3 °F 43.2 °F 51% 30.36 in 10.0 mi Calm Calm - N/A   Clear
11:55 AM 62.2 °F 40.6 °F 45% 30.36 in 10.0 mi Calm Calm - N/A   Clear
12:15 PM 63.5 °F 39.9 °F 42% 30.36 in 10.0 mi SE 3.5 mph - N/A   Clear
12:35 PM 63.7 °F 37.0 °F 37% 30.35 in 10.0 mi Calm Calm - N/A   Clear
12:55 PM 63.9 °F 35.8 °F 35% 30.34 in 10.0 mi South 4.6 mph - N/A   Clear
1:15 PM 64.8 °F 35.8 °F 34% 30.34 in 10.0 mi SSW 6.9 mph - N/A   Clear
1:35 PM 65.7 °F 34.9 °F 32% 30.33 in 10.0 mi SSE 6.9 mph - N/A   Clear
1:55 PM 65.7 °F 36.3 °F 34% 30.31 in 10.0 mi South 4.6 mph - N/A   Clear
2:15 PM 66.0 °F 34.2 °F 31% 30.31 in 10.0 mi SE 5.8 mph - N/A   Clear
2:35 PM 66.0 °F 34.0 °F 30% 30.30 in 10.0 mi Calm Calm - N/A   Clear
2:55 PM 66.6 °F 34.0 °F 30% 30.29 in 10.0 mi SSE 6.9 mph - N/A   Clear
3:15 PM 66.4 °F 34.0 °F 30% 30.29 in 10.0 mi Calm Calm - N/A   Clear
3:35 PM 66.2 °F 34.3 °F 31% 30.29 in 10.0 mi NE 3.5 mph - N/A   Clear
3:55 PM 66.9 °F 35.6 °F 31% 30.29 in 10.0 mi East 4.6 mph - N/A   Clear
4:15 PM 66.6 °F 36.1 °F 33% 30.29 in 10.0 mi Calm Calm - N/A   Clear
4:35 PM 66.6 °F 35.8 °F 32% 30.29 in 10.0 mi Calm Calm - N/A   Clear
4:55 PM 66.4 °F 36.1 °F 33% 30.29 in 10.0 mi Calm Calm - N/A   Clear
5:15 PM 66.2 °F 35.2 °F 32% 30.29 in 10.0 mi South 4.6 mph - N/A   Clear
5:35 PM 65.7 °F 36.0 °F 33% 30.29 in 10.0 mi Calm Calm - N/A   Clear
5:55 PM 64.8 °F 36.0 °F 34% 30.29 in 10.0 mi Calm Calm - N/A   Clear
6:15 PM 63.9 °F 36.9 °F 37% 30.29 in 10.0 mi Calm Calm - N/A   Clear
6:55 PM 57.2 °F 45.1 °F 64% 30.30 in 10.0 mi Calm Calm - N/A   Clear
7:15 PM 54.9 °F 45.9 °F 72% 30.30 in 10.0 mi Calm Calm - N/A   Clear
7:35 PM 54.7 °F 45.1 °F 70% 30.31 in 10.0 mi Calm Calm - N/A   Clear
7:55 PM 52.2 °F 46.0 °F 80% 30.31 in 10.0 mi Calm Calm - N/A   Clear
8:15 PM 51.1 °F 45.0 °F 80% 30.31 in 10.0 mi Calm Calm - N/A   Clear
8:35 PM 50.2 °F 45.0 °F 82% 30.32 in 10.0 mi Calm Calm - N/A   Clear
8:55 PM 48.6 °F 44.6 °F 86% 30.32 in 10.0 mi Calm Calm - N/A   Clear
9:15 PM 48.4 °F 44.2 °F 86% 30.33 in 10.0 mi Calm Calm - N/A   Clear
9:35 PM 49.8 °F 43.7 °F 79% 30.34 in 10.0 mi Calm Calm - N/A   Clear
10:15 PM 47.5 °F 42.8 °F 84% 30.34 in 10.0 mi Calm Calm - N/A   Clear
10:55 PM 47.1 °F 43.2 °F 86% 30.35 in 10.0 mi Calm Calm - N/A   Clear
11:15 PM 46.8 °F 42.8 °F 86% 30.35 in 10.0 mi Calm Calm - N/A   Clear
11:35 PM 46.9 °F 43.0 °F 86% 30.34 in 10.0 mi Calm Calm - N/A   Clear
11:55 PM 46.4 °F 43.0 °F 88% 30.34 in 10.0 mi Calm Calm - N/A   Clear